Weather History for Norfolk, NE

Change the Weather History Date:

Thursday, September 4, 2014

  Actual Average Record
Temperature  
Mean Temperature 71 °F 69 °F  
Max Temperature 79 °F 81 °F 102 °F (1913)
Min Temperature 63 °F 56 °F 34 °F (1902)
Degree Days  
Heating Degree Days 0 2  
Month to date heating degree days 0 5  
Since 1 July heating degree days 12 21  
Cooling Degree Days 6 5  
Month to date cooling degree days 22 22  
Year to date cooling degree days 749 838  
Growing Degree Days 22 (Base 50)    
Moisture  
Dew Point 63 °F    
Average Humidity 69    
Maximum Humidity 84    
Minimum Humidity 53    
Precipitation  
Precipitation 0.00 in 0.10 in 1.05 in (1929)
Month to date precipitation 0.37 0.38  
Year to date precipitation 25.59 20.91  
Snow  
Snow 0.00 in 0.00 in - ()
Month to date snowfall 0.0 0.0  
Since 1 July snowfall 0.0 0.0  
Snow Depth 0.00 in    
Sea Level Pressure  
Sea Level Pressure 29.78 in    
Wind  
Wind Speed 12 mph (NW)    
Max Wind Speed 21 mph    
Max Gust Speed 26 mph    
Visibility 10 miles    
Events Thunderstorm    
T = Trace of Precipitation, MM = Missing Value Source: NWS Daily Summary

Daily Weather History Graph

Daily Weather History Graph

Search for Another Location

Airport:

Trip Planner

Search our weather history database for the weather conditions in past years. The results will help you decide how hot, cold, wet, or windy it might be!

Date:

Astronomy

Sep. 04, 2014 Rise Set
Actual Time 6:58 AM CDT 7:58 PM CDT
Civil Twilight 6:29 AM CDT 8:26 PM CDT
Nautical Twilight 5:55 AM CDT 9:00 PM CDT
Astronomical Twilight 5:20 AM CDT 9:35 PM CDT
Moon 4:40 PM CDT (9/4) 1:47 AM CDT (9/4)
Length of Visible Light 13h 56m
Length of Day
12h 59m
Waxing Gibbous, 74% of the Moon is Illuminated
Sep 4
Waxing Gibbous
Sep 8
Full
Sep 15
Last Quarter
Sep 24
New
Oct 1
First Quarter

Hourly Weather History & Observations

Time (CDT) Temp. Dew Point Humidity Pressure Visibility Wind Dir Wind Speed Gust Speed Precip Events Conditions
12:56 AM 77.0 °F 69.1 °F 76% 29.62 in 10.0 mi South 17.3 mph 24.2 mph N/A   Clear
1:56 AM 75.9 °F 69.1 °F 79% 29.61 in 10.0 mi South 18.4 mph 24.2 mph N/A   Clear
2:56 AM 75.0 °F 68.0 °F 79% 29.61 in 10.0 mi South 19.6 mph - N/A   Clear
3:56 AM 75.0 °F 66.9 °F 76% 29.61 in 10.0 mi South 19.6 mph - N/A   Clear
4:56 AM 75.0 °F 66.0 °F 73% 29.60 in 10.0 mi South 17.3 mph - N/A   Clear
5:56 AM 73.9 °F 66.0 °F 76% 29.60 in 10.0 mi South 17.3 mph - N/A   Clear
6:56 AM 71.1 °F 66.0 °F 84% 29.67 in 10.0 mi NW 11.5 mph - N/A   Clear
7:56 AM 72.0 °F 66.9 °F 84% 29.68 in 10.0 mi Calm Calm - N/A   Clear
8:56 AM 75.9 °F 66.9 °F 74% 29.68 in 10.0 mi SSW 11.5 mph - N/A   Clear
9:56 AM 78.1 °F 66.9 °F 68% 29.70 in 10.0 mi WNW 13.8 mph - N/A   Clear
10:56 AM 75.0 °F 63.0 °F 66% 29.73 in 10.0 mi NW 11.5 mph - N/A   Clear
11:56 AM 75.9 °F 66.0 °F 71% 29.77 in 10.0 mi NW 15.0 mph - N/A   Mostly Cloudy
12:56 PM 75.9 °F 66.0 °F 71% 29.78 in 10.0 mi NW 12.7 mph - N/A   Overcast
1:56 PM 77.0 °F 66.9 °F 71% 29.80 in 10.0 mi North 8.1 mph - N/A   Overcast
2:56 PM 75.0 °F 66.9 °F 76% 29.83 in 10.0 mi NW 6.9 mph - N/A   Overcast
3:56 PM 72.0 °F 64.9 °F 78% 29.84 in 10.0 mi NW 8.1 mph - N/A   Overcast
4:54 PM 75.2 °F 66.2 °F 73% 29.89 in 10.0 mi NW 9.2 mph - N/A   Overcast
4:56 PM 75.0 °F 66.0 °F 73% 29.85 in 10.0 mi NW 10.4 mph - N/A   Overcast
5:56 PM 75.9 °F 63.0 °F 64% 29.85 in 10.0 mi NNW 15.0 mph - N/A   Clear
6:56 PM 75.0 °F 57.0 °F 53% 29.88 in 10.0 mi NNW 9.2 mph - N/A   Mostly Cloudy
7:56 PM 71.1 °F 54.0 °F 55% 29.90 in 10.0 mi NNW 11.5 mph - N/A   Clear
8:56 PM 70.0 °F 53.1 °F 55% 29.94 in 10.0 mi NNW 13.8 mph - N/A   Overcast
10:20 PM 68.0 °F 52.0 °F 56% 30.00 in 10.0 mi North 13.8 mph 24.2 mph N/A Thunderstorm Mostly Cloudy
10:37 PM 66.0 °F 52.0 °F 60% 30.00 in 10.0 mi NNW 13.8 mph - N/A   Mostly Cloudy
10:56 PM 66.9 °F 52.0 °F 59% 30.01 in 10.0 mi North 5.8 mph - N/A   Mostly Cloudy
11:56 PM 64.9 °F 53.1 °F 65% 30.02 in 10.0 mi NNW 9.2 mph - N/A   Overcast